sat.trackr.live / text

‹ back to catalog

STARLINK-32223

NORAD 60373 · 2024-138U

PAYLOAD ACTIVE UNKNOWN

§ Identity

Operator
Country
US
Launch date
2024-08-04
Launch site
AFWTR
Launch vehicle
Mass (kg)
RCS (m²)

Purposes: comms

External: N2YO · Heavens-Above · Gunter

§ Orbital elements

Epoch: 2026-09-21T19:46:34.051872Z

Period
94.01 min
Inclination
53.1606°
Eccentricity
0.0001418
Mean motion
15.31697934 rev/d
Perigee alt
469.8 km
Apogee alt
471.7 km
Semi-major
6,848.9 km
B*
-6.9665e-6
RAAN
117.3714°
Arg perigee
80.6353°
Mean anomaly
279.4809°
Rev number
12,057

§ Raw data

STARLINK-322231 60373U 24138U   26264.82400523 -.00000581  00000+0 -69665-5 0  99932 60373  53.1606 117.3714 0001418  80.6353 279.4809 15.31697934120577

JSON: /api/v1/satellites/60373 · /tle

For live sub-satellite position, see the globe view (requires WebGL).

§ Visibility from observer

Set your observer location to see the next 7 days of passes ≥ 10°. The values pass through the URL so the page stays shareable.

No JS? Fill the form by hand. The geolocation button needs JavaScript.